Terminal Aerodrome Forecast
Issued by NWS Pittsburgh, PA

Current Version | Previous Version | Graphics & Text | Print | Product List | Glossary On
Versions: 1 2 3 4 5 6 7 8 9 10 11 12 13 14 15 16 17 18 19 20 21 22 23 24 25 26 27 28 29
309
FTUS41 KPBZ 250855 AAA
TAFPIT
TAF AMD
KPIT 250855Z 2509/2612 11010G18KT P6SM VCSH OVC080
     FM260300 09007KT P6SM BKN025
     FM260800 VRB03KT P6SM OVC015=

USA.gov is the U.S. government's official web portal to all federal, state and local government web resources and services.